Weather History for Louisville Bowman, KY

Change the Weather History Date:

Thursday, August 14, 2014

  Actual Average Record
Temperature  
Mean Temperature 72 °F 78 °F  
Max Temperature 84 °F 88 °F 96 °F (1954)
Min Temperature 60 °F 69 °F 53 °F (2004)
Degree Days  
Heating Degree Days 0 0  
Month to date heating degree days 0 0  
Since 1 June heating degree days 0 3  
Since 1 July heating degree days 0 0  
Cooling Degree Days 7 13  
Month to date cooling degree days 144 182  
Year to date cooling degree days 1109 1032  
Since 1 June cooling degree days 854 885  
Growing Degree Days 22 (Base 50)    
Moisture  
Dew Point 61 °F    
Average Humidity 74    
Maximum Humidity 97    
Minimum Humidity 51    
Precipitation  
Precipitation 0.01 in 0.11 in 1.30 in (2010)
Month to date precipitation 1.59 1.59  
Year to date precipitation 26.45 29.82  
Sea Level Pressure  
Sea Level Pressure 30.02 in    
Wind  
Wind Speed 4 mph (WNW)    
Max Wind Speed 17 mph    
Max Gust Speed 21 mph    
Visibility 10 miles    
Events Rain    
T = Trace of Precipitation, MM = Missing Value Source: NWS Daily Summary

Daily Weather History Graph

Daily Weather History Graph

Search for Another Location

Airport:

Trip Planner

Search our weather history database for the weather conditions in past years. The results will help you decide how hot, cold, wet, or windy it might be!

Date:

Astronomy

Aug. 14, 2014 Rise Set
Actual Time 6:56 AM EDT 8:37 PM EDT
Civil Twilight 6:28 AM EDT 9:05 PM EDT
Nautical Twilight 5:54 AM EDT 9:39 PM EDT
Astronomical Twilight 5:17 AM EDT 10:15 PM EDT
Moon 11:05 PM EDT (8/14) 11:27 AM EDT (8/14)
Length of Visible Light 14h 37m
Length of Day
13h 40m
Waning Gibbous, 79% of the Moon is Illuminated
Aug 14
Waning Gibbous
Aug 17
Last Quarter
Aug 25
New
Sep 2
First Quarter
Sep 8
Full

Hourly Weather History & Observations

Time (EDT) Temp. Heat Index Dew Point Humidity Pressure Visibility Wind Dir Wind Speed Gust Speed Precip Events Conditions
12:53 AM 66.0 °F - 57.9 °F 75% 30.05 in 10.0 mi Calm Calm - N/A   Clear
1:53 AM 64.9 °F - 57.9 °F 78% 30.05 in 10.0 mi Calm Calm - N/A   Clear
2:53 AM 64.0 °F - 59.0 °F 84% 30.04 in 10.0 mi Calm Calm - N/A   Clear
3:53 AM 62.1 °F - 59.0 °F 90% 30.03 in 10.0 mi Calm Calm - N/A   Clear
4:53 AM 61.0 °F - 57.9 °F 90% 30.04 in 10.0 mi Calm Calm - N/A   Clear
5:53 AM 62.1 °F - 57.9 °F 86% 30.04 in 10.0 mi Calm Calm - N/A   Clear
6:53 AM 61.0 °F - 59.0 °F 93% 30.05 in 10.0 mi Calm Calm - N/A   Clear
7:53 AM 64.0 °F - 59.0 °F 84% 30.06 in 10.0 mi Calm Calm - N/A   Clear
8:53 AM 69.1 °F - 60.1 °F 73% 30.07 in 10.0 mi Calm Calm - N/A   Clear
9:53 AM 73.0 °F - 60.1 °F 64% 30.07 in 10.0 mi NW 4.6 mph - N/A   Clear
10:53 AM 75.9 °F - 60.1 °F 58% 30.06 in 10.0 mi Calm Calm - N/A   Clear
11:53 AM 79.0 °F - 60.1 °F 52% 30.06 in 10.0 mi NW 6.9 mph - N/A   Clear
12:53 PM 81.0 °F 81.9 °F 62.1 °F 52% 30.04 in 10.0 mi West 9.2 mph - N/A   Partly Cloudy
1:53 PM 81.0 °F 81.9 °F 62.1 °F 52% 30.01 in 10.0 mi SW 6.9 mph - N/A   Mostly Cloudy
2:53 PM 81.0 °F 81.9 °F 62.1 °F 52% 30.01 in 10.0 mi WSW 11.5 mph - N/A   Mostly Cloudy
3:53 PM 82.0 °F 83.0 °F 62.1 °F 51% 29.99 in 10.0 mi SW 9.2 mph - N/A   Scattered Clouds
4:53 PM 78.1 °F - 64.0 °F 62% 29.99 in 10.0 mi North 5.8 mph - 0.01 in Rain Light Rain
5:53 PM 82.0 °F 83.1 °F 63.0 °F 52% 29.98 in 10.0 mi NNW 3.5 mph - 0.00 in   Partly Cloudy
6:53 PM 82.0 °F 83.0 °F 62.1 °F 51% 29.96 in 10.0 mi WNW 6.9 mph - N/A   Mostly Cloudy
7:53 PM 78.1 °F - 64.0 °F 62% 29.97 in 10.0 mi North 4.6 mph - N/A   Mostly Cloudy
8:53 PM 75.9 °F - 63.0 °F 64% 29.99 in 10.0 mi West 4.6 mph - N/A   Clear
9:53 PM 75.0 °F - 63.0 °F 66% 30.00 in 10.0 mi WNW 10.4 mph - N/A   Clear
10:53 PM 73.0 °F - 64.0 °F 73% 30.00 in 10.0 mi West 5.8 mph - N/A   Scattered Clouds
11:53 PM 73.0 °F - 64.0 °F 73% 30.01 in 10.0 mi NNW 4.6 mph - N/A   Clear